Wind_Speed
31 32 32 32 33 33 34 34 35 35 36 37 38 39 40 41 42 42 42 42 43 44 44 45 45 45 45 46 45 45 45 45 45 45 45 45 45 45 45 44 42 41 39
34 34 35 36 36 37 38 39 39 41 42 43 45 46 46 46 46 46 45 46 46 46 47 48 49 49 49 50 50 51 51 51 51 51 51 50 49 49 48 47 46 44 42
37 38 40 41 42 42 43 44 46 47 48 49 50 51 52 52 51 51 51 51 51 52 52 52 53 53 54 54 54 55 55 56 56 56 56 56 56 55 54 52 50 48 45
39 41 43 44 46 47 48 50 52 52 53 53 54 54 55 56 56 56 56 57 57 58 58 59 59 59 59 58 58 59 58 59 59 60 60 61 60 60 59 58 56 54 51
41 42 44 46 48 49 51 53 54 55 56 56 57 58 59 60 61 61 62 62 63 63 64 65 65 65 65 65 64 64 63 63 63 63 64 64 64 64 63 62 61 60 57
42 43 45 47 48 51 53 54 55 58 60 61 63 64 65 65 67 67 68 68 68 68 69 69 70 71 72 72 72 71 70 70 69 69 68 68 68 69 69 67 65 64 62
44 45 46 49 51 54 56 57 60 62 64 66 68 69 70 71 72 72 73 73 73 73 73 74 74 75 75 76 76 76 75 75 74 71 69 68 68 68 70 72 71 69 67
47 49 52 54 56 58 60 62 65 66 68 71 73 75 75 75 75 76 77 77 77 77 76 75 74 74 74 73 73 73 72 71 70 68 67 67 67 68 70 71 72 72 71
52 55 56 59 61 62 64 67 68 70 71 72 75 77 78 78 76 75 76 76 75 74 72 69 68 67 66 65 63 63 62 60 61 61 62 62 63 64 67 68 71 73 73
58 59 61 63 64 66 68 69 70 70 70 71 71 72 72 70 68 65 63 63 62 61 60 59 58 57 56 56 56 55 55 54 54 56 58 60 63 64 65 66 69 71 74
63 64 65 66 67 68 68 68 67 66 65 64 62 61 59 57 55 53 50 47 47 47 48 48 49 49 50 50 50 50 51 51 51 51 52 55 59 61 63 64 66 68 71
65 66 66 66 66 65 64 62 60 59 57 56 54 53 51 49 47 46 45 42 41 41 42 43 44 45 46 46 47 48 48 48 48 48 48 49 52 54 57 60 63 65 68
65 65 64 62 59 57 55 54 53 52 51 50 50 49 48 46 45 44 43 41 40 39 39 39 41 43 44 44 44 45 45 45 45 46 46 46 47 49 51 54 57 60 62
62 59 55 51 49 48 48 47 47 47 48 48 49 49 47 45 45 44 42 40 39 37 36 36 38 40 40 40 40 41 41 41 41 42 43 43 44 45 47 50 53 56 59
54 49 45 43 42 42 43 44 45 47 48 49 49 49 47 45 44 43 41 40 38 35 31 32 34 36 36 36 36 37 37 37 38 38 39 40 41 42 44 46 49 52 55
45 42 40 40 40 41 43 45 47 48 49 49 49 48 47 47 45 43 41 39 37 34 29 28 30 31 32 32 32 33 33 33 33 33 34 35 36 38 40 42 45 47 50
40 38 38 39 41 44 46 48 49 50 51 50 49 48 46 45 43 40 39 37 35 33 28 24 25 27 28 29 29 28 27 26 27 27 28 29 30 32 34 36 39 42 45
37 37 39 42 45 48 50 51 52 52 51 50 48 46 45 43 40 38 36 34 32 30 26 22 23 24 25 26 25 23 22 22 22 22 22 23 24 26 29 32 34 37 40
38 39 42 45 49 51 53 53 53 52 51 48 46 43 42 40 38 35 33 31 29 27 24 21 21 23 23 22 21 20 19 18 18 17 18 19 22 25 27 30 33 35 37
40 43 47 50 53 54 54 53 52 50 48 46 43 41 39 37 34 32 30 28 26 24 22 20 20 20 19 18 16 15 14 14 14 14 16 19 21 23 25 26 28 30 33
44 48 51 53 54 54 53 51 49 47 45 42 40 38 36 33 30 28 26 25 22 20 19 18 17 16 14 13 12 11 10 10 11 12 15 17 19 19 18 19 19 22 25
49 52 54 54 54 53 52 49 47 44 41 39 37 35 32 29 26 24 22 20 19 17 15 15 14 12 11 9 8 8 7 8 9 11 13 14 14 11 8 6 6 11 17
52 53 53 53 53 52 49 46 44 41 38 36 33 30 27 24 21 19 18 16 15 14 12 11 10 9 7 6 6 6 6 6 7 8 9 10 8 5 5 5 7 10 15
52 52 53 52 51 49 47 43 41 38 35 33 30 26 23 20 17 15 14 13 11 10 9 7 6 5 5 5 5 4 3 3 3 5 6 6 7 9 9 11 14 17 19
51 51 51 50 48 46 43 40 37 34 32 30 26 23 19 16 13 11 11 10 9 7 7 6 5 5 6 5 5 4 2 1 2 4 5 8 11 12 14 17 20 23 26
49 49 48 47 44 42 39 36 33 31 29 26 23 19 16 12 9 9 9 9 8 8 8 7 7 7 7 6 6 4 4 4 5 6 9 12 14 16 18 21 24 27 30
Wind_Direction
307 307 306 305 303 300 298 297 294 291 287 285 284 284 283 283 282 281 280 277 274 272 271 269 268 267 266 265 264 262 261 260 259 259 258 258 258 258 258 257 256 256 255
304 303 302 300 299 296 294 293 291 289 287 285 285 286 286 285 284 283 281 278 275 272 270 268 267 265 264 263 262 262 261 261 260 260 259 258 258 258 258 257 256 255 255
303 302 301 300 299 297 294 293 292 291 290 290 289 288 288 286 286 284 281 279 276 275 272 270 267 266 265 263 262 261 260 260 260 260 259 259 258 258 257 257 256 255 254
302 301 300 299 299 297 296 295 294 293 292 290 289 289 287 286 285 284 282 281 280 278 277 276 274 271 269 267 264 262 261 259 258 259 258 258 257 257 256 256 255 254 254
299 297 296 295 294 293 293 293 292 291 290 289 288 287 287 286 285 284 283 281 281 280 280 279 278 277 275 273 270 267 264 262 260 259 258 257 256 256 255 255 254 254 254
299 296 294 293 292 292 292 291 290 290 289 288 287 286 285 284 284 283 282 281 280 280 280 280 279 279 278 276 274 272 270 268 265 263 261 259 257 256 254 253 252 252 252
301 298 296 295 294 293 292 291 291 290 289 288 287 286 284 284 284 283 282 281 280 280 279 279 279 278 277 276 275 274 272 270 269 267 263 259 257 255 252 251 251 250 250
299 297 296 295 294 294 292 292 291 291 290 289 289 288 287 284 283 283 282 281 280 279 279 278 278 278 277 276 275 274 272 271 269 265 260 258 255 253 250 249 248 247 246
298 296 296 295 295 294 293 293 293 292 292 291 291 291 290 288 285 282 281 280 278 277 277 276 276 276 276 275 275 274 272 270 265 261 257 253 251 250 248 247 245 244 243
300 298 298 297 297 297 296 296 295 294 293 293 293 292 292 292 290 287 283 280 278 277 275 274 273 274 273 273 273 272 271 268 265 261 256 252 250 248 246 244 243 242 241
302 301 300 300 299 299 298 298 298 297 296 296 296 296 296 295 294 292 289 285 281 278 276 275 273 272 271 271 271 271 270 268 266 263 260 256 254 252 249 246 244 242 241
303 302 301 300 299 299 299 299 299 299 299 298 298 299 299 298 296 294 292 289 284 281 279 277 274 272 271 271 270 270 269 268 266 264 262 260 257 254 251 248 245 243 241
302 301 300 299 299 300 300 301 301 301 300 300 299 299 299 297 296 295 293 290 286 283 280 277 274 273 271 271 270 268 267 267 266 265 264 261 259 255 253 249 246 244 242
303 302 302 301 302 303 304 304 304 304 302 301 300 299 297 295 295 295 293 291 289 285 282 278 274 272 271 271 270 269 269 268 268 266 264 262 260 257 253 250 247 244 243
305 304 305 306 307 308 308 308 308 308 306 304 301 299 295 293 293 293 292 292 292 289 284 279 274 272 272 272 272 272 272 270 270 268 266 263 261 258 255 251 247 244 243
307 307 308 310 311 311 312 312 311 311 308 305 302 298 294 291 290 289 289 290 292 290 286 279 274 272 272 273 274 275 274 271 271 269 266 264 262 259 255 252 248 244 242
309 309 311 312 313 313 313 313 312 311 309 306 302 298 295 291 287 285 286 286 288 289 288 280 274 272 273 275 277 277 275 271 269 268 266 264 262 259 256 252 249 245 242
310 312 313 314 314 314 314 313 312 311 309 306 302 298 295 292 287 282 282 282 283 285 284 280 276 276 277 277 276 276 271 267 267 267 266 265 264 262 259 255 252 247 241
311 313 314 314 314 314 314 312 311 310 308 305 302 299 296 291 286 281 279 278 279 279 280 278 278 280 281 279 275 272 267 263 264 266 268 269 271 269 266 262 256 248 241
311 313 314 315 315 314 313 312 311 309 307 305 303 300 297 292 285 280 276 274 273 274 274 276 280 282 280 277 272 265 260 261 264 269 274 278 280 279 274 266 256 246 238
312 314 315 316 315 315 313 312 310 308 306 305 304 302 299 293 285 278 272 269 267 268 269 275 281 281 276 273 264 254 252 262 270 277 286 292 295 295 287 275 255 238 227
314 315 316 316 316 315 314 312 310 307 306 305 305 303 301 294 285 276 269 262 260 260 265 273 275 276 268 260 248 239 248 267 278 293 303 310 314 315 309 294 230 207 200
316 317 317 317 317 316 315 313 311 308 307 306 306 304 301 294 284 273 265 257 250 249 258 264 263 262 250 236 225 229 246 268 291 312 325 336 353 41 62 92 120 143 161
318 319 319 319 318 318 317 315 313 309 307 308 307 305 300 293 282 266 255 246 239 239 245 240 236 226 210 200 196 206 237 274 311 343 358 21 66 92 82 104 109 121 135
321 321 320 320 320 319 318 317 314 311 309 308 307 306 299 290 276 254 238 227 219 216 207 199 197 179 167 169 175 185 197 176 58 49 55 79 100 102 100 106 110 116 126
323 322 322 322 322 321 320 319 317 314 311 309 307 305 301 287 261 229 211 199 191 183 176 169 159 150 148 149 157 159 149 125 106 95 96 106 114 112 110 112 114 118 123
Height
5842 5840 5838 5836 5834 5831 5829 5827 5825 5823 5821 5818 5816 5814 5812 5809 5807 5805 5804 5803 5801 5799 5798 5797 5796 5795 5795 5795 5795 5795 5796 5796 5797 5798 5799 5800 5802 5803 5804 5806 5808 5810 5812
5836 5834 5831 5829 5827 5824 5821 5819 5816 5814 5812 5809 5806 5803 5801 5798 5796 5794 5791 5789 5788 5786 5785 5784 5783 5783 5782 5782 5782 5783 5783 5784 5785 5786 5787 5788 5790 5792 5793 5795 5798 5800 5803
5828 5825 5822 5819 5816 5814 5811 5808 5805 5802 5800 5797 5794 5791 5788 5786 5783 5781 5778 5776 5773 5771 5770 5769 5769 5769 5768 5768 5769 5769 5769 5770 5770 5771 5773 5775 5777 5779 5781 5783 5786 5789 5792
5819 5815 5812 5809 5805 5802 5799 5795 5792 5789 5786 5784 5781 5778 5775 5773 5770 5767 5764 5761 5758 5755 5753 5751 5751 5751 5752 5752 5752 5753 5754 5755 5756 5757 5758 5760 5762 5764 5767 5769 5773 5776 5779
5811 5807 5804 5800 5796 5792 5788 5785 5781 5778 5774 5771 5768 5766 5763 5759 5756 5753 5749 5745 5742 5739 5736 5733 5731 5731 5731 5732 5733 5734 5736 5738 5739 5740 5742 5744 5746 5748 5751 5754 5758 5762 5765
5803 5798 5794 5790 5786 5782 5778 5774 5770 5766 5761 5758 5754 5751 5748 5745 5740 5736 5732 5728 5725 5721 5718 5715 5712 5711 5710 5709 5710 5712 5714 5717 5719 5721 5723 5726 5728 5731 5734 5737 5741 5745 5750
5793 5788 5784 5780 5775 5770 5766 5761 5757 5752 5747 5741 5737 5734 5731 5727 5722 5717 5712 5709 5705 5701 5698 5695 5692 5690 5689 5688 5689 5690 5692 5694 5697 5699 5702 5705 5708 5711 5714 5718 5723 5728 5733
5782 5778 5773 5768 5763 5758 5752 5746 5741 5736 5730 5723 5717 5711 5709 5709 5703 5697 5691 5686 5682 5679 5676 5674 5670 5668 5667 5666 5666 5667 5669 5671 5674 5677 5680 5683 5686 5690 5692 5697 5702 5708 5714
5771 5766 5761 5755 5749 5743 5736 5730 5724 5718 5712 5705 5696 5689 5683 5681 5679 5677 5669 5663 5659 5656 5654 5652 5650 5648 5647 5646 5646 5646 5647 5649 5651 5654 5657 5661 5664 5668 5671 5675 5680 5686 5693
5757 5751 5745 5739 5732 5725 5718 5711 5705 5698 5692 5686 5679 5670 5662 5656 5651 5649 5646 5641 5637 5635 5634 5633 5632 5630 5629 5628 5628 5628 5629 5630 5631 5634 5637 5640 5642 5645 5649 5653 5658 5664 5671
5742 5735 5729 5722 5715 5708 5700 5693 5687 5680 5673 5667 5660 5653 5646 5639 5633 5628 5626 5624 5621 5619 5617 5617 5616 5615 5614 5613 5612 5612 5612 5613 5615 5616 5618 5621 5623 5626 5629 5633 5638 5643 5650
5728 5720 5713 5706 5699 5692 5685 5678 5671 5665 5658 5652 5646 5639 5633 5627 5622 5616 5613 5610 5609 5607 5605 5603 5602 5601 5600 5599 5598 5598 5598 5598 5599 5600 5602 5604 5606 5609 5611 5615 5619 5624 5631
5715 5707 5699 5692 5685 5678 5671 5665 5659 5652 5646 5640 5634 5628 5622 5616 5611 5606 5602 5599 5597 5596 5594 5592 5589 5587 5586 5586 5585 5585 5585 5585 5585 5586 5587 5589 5590 5592 5594 5598 5602 5607 5613
5702 5694 5686 5679 5673 5666 5660 5654 5647 5641 5635 5629 5623 5617 5611 5606 5601 5596 5592 5588 5586 5585 5583 5580 5577 5575 5574 5574 5574 5573 5573 5573 5573 5573 5574 5574 5575 5577 5579 5581 5585 5590 5596
5689 5681 5675 5668 5662 5656 5650 5643 5637 5631 5624 5617 5611 5605 5600 5595 5590 5586 5581 5577 5575 5574 5573 5570 5566 5564 5563 5563 5563 5562 5562 5561 5561 5561 5561 5561 5561 5562 5563 5566 5569 5573 5579
5678 5671 5665 5659 5653 5647 5640 5633 5627 5620 5612 5606 5599 5594 5588 5583 5579 5575 5571 5568 5564 5562 5563 5560 5557 5555 5554 5554 5553 5553 5552 5551 5551 5550 5549 5548 5548 5548 5549 5551 5554 5557 5562
5669 5663 5657 5651 5644 5637 5630 5623 5616 5608 5600 5593 5586 5581 5575 5571 5567 5564 5561 5558 5555 5553 5553 5552 5549 5548 5546 5546 5545 5544 5543 5542 5541 5540 5539 5538 5537 5537 5537 5538 5540 5543 5547
5661 5655 5649 5642 5635 5628 5620 5612 5604 5595 5588 5580 5573 5567 5562 5558 5554 5552 5550 5548 5546 5545 5544 5544 5542 5541 5540 5538 5538 5537 5536 5535 5534 5532 5531 5530 5529 5528 5527 5527 5528 5529 5533
5654 5647 5640 5633 5625 5617 5608 5599 5591 5582 5574 5567 5561 5555 5550 5546 5542 5541 5540 5539 5538 5537 5537 5537 5536 5534 5533 5532 5531 5530 5529 5529 5528 5527 5525 5524 5522 5520 5517 5516 5515 5516 5519
5646 5638 5631 5623 5614 5604 5595 5586 5578 5569 5561 5554 5548 5543 5538 5534 5531 5530 5530 5529 5530 5530 5530 5530 5529 5528 5527 5526 5525 5525 5524 5524 5523 5522 5520 5518 5515 5511 5508 5504 5503 5504 5506
5636 5629 5620 5611 5601 5592 5583 5574 5565 5557 5549 5543 5537 5532 5527 5524 5521 5520 5521 5521 5522 5523 5523 5523 5523 5522 5522 5521 5521 5521 5521 5521 5520 5518 5516 5513 5508 5504 5499 5495 5493 5494 5496
5626 5617 5608 5598 5588 5579 5570 5561 5553 5545 5539 5533 5528 5522 5518 5514 5513 5512 5512 5514 5515 5516 5517 5518 5518 5518 5518 5518 5518 5518 5519 5519 5517 5515 5512 5508 5504 5499 5495 5491 5489 5489 5493
5615 5605 5596 5586 5577 5567 5558 5550 5541 5534 5529 5524 5519 5514 5510 5507 5505 5505 5506 5508 5509 5511 5512 5513 5514 5514 5515 5515 5516 5517 5517 5517 5515 5513 5510 5506 5502 5499 5496 5493 5491 5491 5494
5603 5594 5584 5574 5565 5556 5547 5539 5531 5524 5519 5515 5510 5507 5503 5501 5499 5500 5501 5503 5505 5506 5508 5509 5510 5512 5513 5514 5515 5516 5516 5515 5514 5512 5510 5507 5504 5502 5500 5498 5496 5497 5499
5592 5583 5573 5564 5554 5545 5537 5530 5523 5516 5511 5507 5503 5500 5497 5495 5495 5495 5497 5499 5501 5503 5505 5507 5509 5510 5512 5513 5515 5516 5516 5515 5514 5513 5512 5510 5509 5508 5507 5506 5505 5506 5508
5583 5573 5563 5554 5545 5537 5529 5522 5515 5509 5504 5500 5496 5494 5492 5491 5491 5492 5494 5496 5499 5501 5504 5506 5508 5510 5512 5514 5515 5516 5516 5516 5516 5515 5515 5514 5514 5515 5515 5515 5516 5517 5520